AT170 Weather Reports


time (UTC)temp
F
wind
direction
speed
knots
gust
knots
rain 1hr
in
rain 24hr
in
rain mn
in
humidity
%
barometer
mb
20260510210006 54 205 0.0 2.6 0.00 0.17 0.16 79 1012.5
20260510203005 54 205 0.0 2.6 0.00 0.24 0.16 80 1012.3
20260510193005 55 205 0.0 2.6 0.00 0.27 0.16 76 1011.4
20260510180004 58 200 0.9 8.7 0.00 0.28 0.16 67 1010.8
20260510173004 59 202 0.0 11.3 0.00 0.28 0.16 66 1010.9
20260510170004 59 229 0.0 4.3 0.00 0.28 0.16 63 1010.7
20260510163005 59 208 0.0 10.4 0.00 0.28 0.16 64 1010.7
20260510153007 58 209 0.9 8.7 0.00 0.28 0.16 68 1010.7
20260510143005 55 228 0.0 2.6 0.00 0.28 0.16 80 1011.1
20260510133004 54 216 0.0 4.3 0.00 0.28 0.16 85 1011.1
20260510130005 55 198 0.9 12.2 0.00 0.28 0.16 84 1010.9
20260510123005 54 197 2.6 10.4 0.00 0.28 0.16 86 1011.2
20260510120004 52 199 0.0 10.4 0.03 0.31 0.16 89 1011.1
20260510113005 51 215 0.0 5.2 0.04 0.35 0.16 90 1011.3
20260510110005 52 215 0.0 2.6 0.07 0.32 0.13 90 1011.4
20260510100004 56 198 0.0 10.4 0.00 0.31 0.06 82 1010.4
20260510093005 56 178 2.6 10.4 0.00 0.31 0.06 84 1010.4
20260510083004 53 182 0.9 10.4 0.00 0.31 0.06 90 1010.9
20260510073006 52 222 0.9 5.2 0.00 0.31 0.06 90 1011.1
20260510070005 51 232 0.0 6.1 0.00 0.31 0.06 90 1011.0
20260510063004 50 245 0.0 1.7 0.00 0.31 0.06 90 1010.9
20260510060004 50 245 0.0 0.9 0.00 0.31 0.06 90 1010.9
20260510043004 48 245 0.0 0.0 0.00 0.32 0.06 90 1010.8
20260510040006 48 245 0.0 0.0 0.00 0.32 0.06 90 1010.8
20260510033006 49 245 0.0 0.0 0.00 0.32 0.06 90 1010.9
20260510020005 50 245 0.0 2.6 0.00 0.32 0.06 90 1011.1
20260510013005 50 245 0.0 0.0 0.01 0.32 0.06 90 1011.3
20260510010005 50 245 0.0 2.6 0.01 0.32 0.06 90 1011.3
20260510003004 50 246 0.0 0.0 0.00 0.31 0.05 90 1011.5
20260510000005 50 246 0.0 0.9 0.01 0.31 0.05 90 1011.5
20260509233004 50 246 0.0 4.3 0.02 0.31 0.05 90 1011.7
20260509230004 50 250 0.9 2.6 0.04 0.31 0.04 90 1011.4
20260509223005 50 257 0.0 0.9 0.02 0.29 0.02 90 1011.4
20260509213005 50 257 0.0 0.0 0.08 0.27 0.27 89 1010.9